Regional Weather Roundup
Issued by NWS

Home | Current Version | Previous Version | Text Only | Print | Product List | Glossary On
Versions: 1 2 3 4 5 6 7 8 9 10 11 12 13 14 15 16 17 18 19 20 21 22 23 24 25 26 27 28 29 30 31 32 33 34 35 36 37 38 39 40 41 42 43 44 45 46 47 48 49 50
000
ASUS44 KFWD 011210
RWRTX
NORTH TEXAS HOURLY WEATHER ROUNDUP
NATIONAL WEATHER SERVICE FORT WORTH TX
600 AM CST SUN FEB 01 2015

NOTE: "FAIR" INDICATES FEW OR NO CLOUDS BELOW 12,000 FEET WITH NO
SIGNIFICANT WEATHER AND/OR OBSTRUCTIONS TO VISIBILITY.

TXZ118-119-011300-
DALLAS/FORT WORTH METROPLEX

CITY           SKY/WX    TMP DP  RH WIND       PRES   REMARKS
DFW AIRPORT    CLOUDY    57  56  96 SW9       29.83S
6HR MIN TEMP:  54; 6HR MAX TEMP:  57; 6HR PCP:  0.10;

DALLAS LOVE    CLOUDY    59  58  96 SW5       29.84R FOG
6HR MIN TEMP:  54; 6HR MAX TEMP:  59; 6HR PCP:  0.26;

FTW MEACHAM    CLOUDY    57  55  93 SW3       29.83S FOG
6HR MIN TEMP:  54; 6HR MAX TEMP:  58; 6HR PCP: TRACE;

DAL-EXECUTIVE  CLOUDY    62  58  86 SW5       29.83S
6HR MIN TEMP:  56; 6HR MAX TEMP:  62; 6HR PCP:  0.24;

FTW-ALLIANCE   CLOUDY    55  55 100 W5        29.84R FOG
6HR MIN TEMP:  52; 6HR MAX TEMP:  56; 6HR PCP:  0.05;

FTW-SPINKS     CLOUDY    57  56  96 CALM      29.86R FOG
6HR MIN TEMP:  54; 6HR MAX TEMP:  58; 6HR PCP:  0.10;

ARLINGTON      CLOUDY    60  56  86 SW5       29.84R
6HR MIN TEMP:  55; 6HR MAX TEMP:  60; 6HR PCP:  0.27;

ADDISON        CLOUDY    59  57  94 SW5       29.84F FOG
LANCASTER      CLOUDY    59  56  91 S7        29.84S FOG
6HR MIN TEMP:  54; 6HR MAX TEMP:  59; 6HR PCP:  0.04;

$$

TXZ091>094-102>105-117-120-121-131>134-011300-
NORTH CENTRAL TEXAS

CITY           SKY/WX    TMP DP  RH WIND       PRES   REMARKS
SHRMAN/DENISON LGT RAIN  54  54 100 SW7       29.84S
6HR MIN TEMP:  50; 6HR MAX TEMP:  54; 6HR PCP:  0.20;

GAINESVILLE    LGT RAIN  52  51  97 W7        29.86R
6HR MIN TEMP:  49; 6HR MAX TEMP:  53; 6HR PCP:  0.03;

BOWIE          DRIZZLE   52  52  99 W6        29.85S
6HR MIN TEMP:  49; 6HR MAX TEMP:  52; 6HR PCP:  0.01;

BRIDGEPORT     CLOUDY    53  53 100 CALM      29.87R FOG
6HR MIN TEMP:  50; 6HR MAX TEMP:  53;

DECATUR        CLOUDY    52  52 100 W5        29.85R FOG
6HR MIN TEMP:  50; 6HR MAX TEMP:  54;

DENTON         CLOUDY    54  54 100 W3        29.84R FOG
6HR MIN TEMP:  51; 6HR MAX TEMP:  55; 6HR PCP:  0.07;

MCKINNEY       CLOUDY    59  57  93 SW10      29.82S
6HR MIN TEMP:  52; 6HR MAX TEMP:  59; 6HR PCP:  0.29;

GREENVILLE     LGT RAIN  59  55  88 S12       29.84S
ROCKWALL       CLOUDY    58  58 100 S9G20     29.83S FOG
6HR MIN TEMP:  53; 6HR MAX TEMP:  58; 6HR PCP:  0.15;

TERRELL        CLOUDY    60  58  92 S8        29.84F FOG
6HR MIN TEMP:  55; 6HR MAX TEMP:  60; 6HR PCP:  0.31;

WAXAHACHIE     CLOUDY    60  60 100 SW5       29.85S
6HR MIN TEMP:  54; 6HR MAX TEMP:  60; 6HR PCP:  0.13;

CLEBURNE       CLOUDY    57  57 100 CALM      29.86R FOG
GRANBURY       FOG       50  49  96 CALM      29.86R VSB 1/4
6HR MIN TEMP:  48; 6HR MAX TEMP:  56; 6HR PCP:  0.01;

$$

TXZ083>090-098>101-113>116-127>130-139>142-154-155-011300-
WESTERN NORTH TEXAS

CITY           SKY/WX    TMP DP  RH WIND       PRES   REMARKS
WICHITA FALLS  CLOUDY    48  46  93 W7        29.86R FOG
6HR MIN TEMP:  48; 6HR MAX TEMP:  50;

WF-KICKAPOO    CLOUDY    43  43  99 W5        29.87S
6HR MIN TEMP:  42; 6HR MAX TEMP:  44;

VERNON         CLOUDY    47  43  88 NW10      29.90R
6HR MIN TEMP:  42; 6HR MAX TEMP:  47;

ABILENE        CLOUDY    51  50  96 W5        29.88R
6HR MIN TEMP:  50; 6HR MAX TEMP:  55;

ABILENE-DYESS  CLOUDY    50  50 100 W8        29.87R
6HR MIN TEMP:  49; 6HR MAX TEMP:  55;

BRECKENRIDGE   CLOUDY    54  54  98 W3        29.87R
6HR MIN TEMP:  52; 6HR MAX TEMP:  55;

GRAHAM         CLOUDY    51  51 100 CALM      29.85R FOG
6HR MIN TEMP:  49; 6HR MAX TEMP:  51;

MINERAL WELLS  FOG       50  50 100 CALM      29.84R VSB<1/4
6HR MIN TEMP:  48; 6HR MAX TEMP:  51;

STEPHENVILLE   CLEAR     54  52  94 CALM      29.87R
6HR MIN TEMP:  53; 6HR MAX TEMP:  55;

COMANCHE       MOCLDY    54  54 100 SW12      29.85R FOG
6HR MIN TEMP:  54; 6HR MAX TEMP:  56;

BROWNWOOD      FOG       50  50 100 CALM      29.88R VSB<1/4
COLEMAN        FOG       50  50 100 W3        29.88R VSB 1/4
6HR MIN TEMP:  50; 6HR MAX TEMP:  54;

$$

TXZ143>147-156>162-174-175-011300-
CENTRAL TEXAS

CITY           SKY/WX    TMP DP  RH WIND       PRES   REMARKS
WACO           PTCLDY    58  57  97 S7        29.85S
6HR MIN TEMP:  58; 6HR MAX TEMP:  60; 6HR PCP: TRACE;

WACO-MCGREGOR  PTCLDY    59  54  82 S7        29.87S
6HR MIN TEMP:  59; 6HR MAX TEMP:  61;

HILLSBORO      CLOUDY    60  58  94 S7        29.85S FOG
6HR MIN TEMP:  58; 6HR MAX TEMP:  60; 6HR PCP:  0.18;

CORSICANA      CLOUDY    60  58  92 S10       29.86S FOG
6HR MIN TEMP:  57; 6HR MAX TEMP:  61; 6HR PCP:  0.07;

MEXIA          CLOUDY    61  60  95 S12       29.86S
6HR MIN TEMP:  56; 6HR MAX TEMP:  61; 6HR PCP:  0.01;

HEARNE         CLOUDY    60  60  99 CALM      29.90S FOG
6HR MIN TEMP:  58; 6HR MAX TEMP:  61; 6HR PCP:  0.01;

CAMERON        CLOUDY    63  61  94 S9        29.87F
6HR MIN TEMP:  60; 6HR MAX TEMP:  63;

TEMPLE         CLOUDY    59  55  88 S9        29.85F
6HR MIN TEMP:  59; 6HR MAX TEMP:  61;

KILLEEN        MOCLDY    59  58  98 S8        29.86S
6HR MIN TEMP:  58; 6HR MAX TEMP:  61;

KILLEEN-SKYLRK PTCLDY    59  54  82 S6        29.85R
6HR MIN TEMP:  59; 6HR MAX TEMP:  61;

FORT HOOD      MOCLDY    58  57  97 S6        29.86R
6HR MIN TEMP:  58; 6HR MAX TEMP:  61;

GATESVILLE     PTCLDY    57  57 100 CALM      29.87S FOG
LAMPASAS       FOG       58  57  97 CALM      29.86R VSB 1
6HR MIN TEMP:  56; 6HR MAX TEMP:  60;

$$

TXZ095>097-106>112-122>126-135>138-148>153-164>167-011300-
EAST TEXAS

CITY           SKY/WX    TMP DP  RH WIND       PRES   REMARKS
PARIS          CLOUDY    55  54  94 SW12G18   29.83S
6HR MIN TEMP:  48; 6HR MAX TEMP:  55; 6HR PCP:  0.20;

SULPHUR SPRNGS RAIN      59  58  97 SW17      29.86R
6HR MIN TEMP:  53; 6HR MAX TEMP:  59; 6HR PCP:  0.10;

MOUNT PLEASANT CLOUDY    58  57  96 S13       29.86S
6HR MIN TEMP:  51; 6HR MAX TEMP:  58; 6HR PCP:  0.02;

GILMER         CLOUDY    57  56  97 S7        29.86S FOG
6HR MIN TEMP:  53; 6HR MAX TEMP:  58; 6HR PCP:  0.02;

MINEOLA        CLOUDY    59  59 100 S7        29.86S
TYLER          CLOUDY    60  57  89 S13       29.86F
6HR MIN TEMP:  55; 6HR MAX TEMP:  60; 6HR PCP:  0.06;

LONGVIEW       CLOUDY    58  56  93 S12       29.87S
6HR MIN TEMP:  55; 6HR MAX TEMP:  59; 6HR PCP:  0.01;

MARSHALL       CLOUDY    58  56  91 S8        29.91R
6HR MIN TEMP:  58; 6HR MAX TEMP:  58; 6HR PCP:  0.01;

ATHENS         CLOUDY    57  55  94 S8        29.86S
PALESTINE      CLOUDY    60  60 100 S8        29.89S FOG
JACKSONVILLE   CLOUDY    60  59  97 MISG      29.90S FOG
HENDERSON      CLOUDY    58  58  98 S7        29.89S
6HR MIN TEMP:  56; 6HR MAX TEMP:  58;

NACOGDOCHES    CLOUDY    57  55  94 S7        29.91S
6HR MIN TEMP:  55; 6HR MAX TEMP:  57;

LUFKIN         CLOUDY    63  58  83 S7        29.91S
6HR MIN TEMP:  60; 6HR MAX TEMP:  63; 6HR PCP: TRACE;

$$

SUPPLEMENTAL OBSERVATIONS (CENTRAL)

CITY           SKY/WX    TMP DP  RH WIND       PRES   REMARKS
CADDO GRASSLND   N/A     57  55  94 SW7         N/A
PAT MAYSE LAKE   N/A     55  54  94 SW9         N/A
GREENVILLE       N/A     57  54  88 SW12        N/A
PALESTINE        N/A     61  59  94 SW5G13      N/A
MCGREGOR         N/A     59  57  94 S5          N/A
TEMPLE           N/A     61  59  94 S8          N/A
$$

SUPPLEMENTAL OBSERVATIONS (WEST)

CITY           SKY/WX    TMP DP  RH WIND       PRES   REMARKS
MILLERS CREEK    N/A     48  46  93 NW3         N/A
POSSUM KINGDOM   N/A     52  50  93 W6          N/A
LBJ GRASSLAND    N/A     54  52  94 CALM        N/A
GRANBURY         N/A     50  48  93 W2          N/A
HAMBY            N/A     52  48  87 W8          N/A
IVIE RESERVOIR   N/A     48  46  93 NW5         N/A


USA.gov is the U.S. government's official web portal to all federal, state and local government web resources and services.